timestamp,wind_dir_avg,wind_spd_avg,wind_spd_max_dir,wind_spd_gust,battery_voltage,lat,long
2023-01-30 00:04:00+00:00,301.0,5.15,301.0,5.82,12.41,47.59359,-54.27349
2023-01-30 00:14:00+00:00,273.0,5.27,272.0,6.19,12.33,47.59359,-54.27349
2023-01-30 00:24:00+00:00,278.0,6.34,272.0,7.71,12.33,47.59359,-54.27349
2023-01-30 00:34:00+00:00,284.0,6.49,284.0,7.98,12.33,47.59359,-54.27349
2023-01-30 00:44:00+00:00,283.0,5.65,279.0,6.87,12.33,47.59359,-54.27349
2023-01-30 00:54:00+00:00,294.0,5.11,298.0,6.37,12.33,47.59359,-54.27349
2023-01-30 01:04:00+00:00,308.0,4.5,309.0,5.6,12.33,47.59359,-54.27349
2023-01-30 01:14:01+00:00,297.0,4.91,298.0,5.54,12.33,47.59359,-54.27349
2023-01-30 01:24:01+00:00,304.0,4.01,293.0,5.44,12.33,47.59359,-54.27349
2023-01-30 01:34:01+00:00,304.0,5.56,293.0,7.83,12.33,47.59359,-54.27349
2023-01-30 01:44:01+00:00,297.0,6.06,296.0,6.82,12.33,47.59359,-54.27349
2023-01-30 01:54:01+00:00,302.0,4.18,303.0,6.54,12.33,47.59359,-54.27349
2023-01-30 02:04:01+00:00,307.0,4.54,305.0,5.29,12.33,47.59359,-54.27349
2023-01-30 02:14:01+00:00,294.0,6.36,292.0,6.93,12.33,47.59359,-54.27349
2023-01-30 02:24:01+00:00,305.0,4.85,309.0,5.34,12.33,47.59359,-54.27349
2023-01-30 02:34:01+00:00,286.0,5.26,287.0,6.61,12.33,47.59359,-54.27349
2023-01-30 02:44:01+00:00,296.0,5.79,300.0,6.93,12.33,47.59359,-54.27349
2023-01-30 02:54:01+00:00,312.0,3.38,295.0,5.78,12.33,47.59359,-54.27349
2023-01-30 03:04:01+00:00,285.0,4.67,277.0,5.82,12.33,47.59359,-54.27349
2023-01-30 03:14:01+00:00,310.0,3.22,289.0,5.69,12.25,47.59359,-54.27349
2023-01-30 03:24:01+00:00,294.0,3.37,284.0,5.52,12.25,47.59359,-54.27349
2023-01-30 03:34:01+00:00,310.0,3.87,297.0,6.14,12.25,47.59359,-54.27349
2023-01-30 03:44:01+00:00,301.0,3.84,284.0,6.07,12.25,47.59359,-54.27349
2023-01-30 03:54:01+00:00,298.0,4.28,290.0,5.97,12.25,47.59359,-54.27349
2023-01-30 04:04:01+00:00,348.0,1.59,344.0,2.23,12.25,47.59359,-54.27349
2023-01-30 04:14:00+00:00,344.0,2.11,344.0,2.6,12.25,47.59359,-54.27349
2023-01-30 04:24:00+00:00,323.0,2.1,292.0,5.35,12.25,47.59359,-54.27349
2023-01-30 04:34:00+00:00,349.0,1.89,2.0,2.42,12.25,47.59359,-54.27349
2023-01-30 04:44:00+00:00,3.0,0.82,0.0,1.6,12.25,47.59359,-54.27349
2023-01-30 04:54:00+00:00,76.0,1.63,83.0,4.59,12.25,47.59359,-54.27349
2023-01-30 05:04:00+00:00,105.0,0.4,87.0,0.49,12.25,47.59359,-54.27349
2023-01-30 05:14:00+00:00,127.0,1.02,101.0,3.22,12.25,47.59359,-54.27349
2023-01-30 05:24:00+00:00,109.0,3.7,105.0,5.81,12.25,47.59359,-54.27349
2023-01-30 05:34:00+00:00,109.0,2.89,103.0,4.59,12.25,47.59359,-54.27349
2023-01-30 05:44:00+00:00,110.0,3.78,107.0,6.13,12.25,47.59359,-54.27349
2023-01-30 05:54:00+00:00,110.0,3.56,101.0,5.82,12.25,47.59359,-54.27349
2023-01-30 06:04:00+00:00,120.0,3.85,114.0,5.49,12.25,47.59359,-54.27349
2023-01-30 06:14:01+00:00,147.0,2.44,132.0,3.59,12.25,47.59359,-54.27349
2023-01-30 06:24:01+00:00,143.0,3.36,142.0,3.96,12.25,47.59359,-54.27349
2023-01-30 06:34:01+00:00,141.0,3.44,144.0,4.06,12.25,47.59359,-54.27349
2023-01-30 06:44:01+00:00,158.0,2.97,153.0,3.59,12.25,47.59359,-54.27349
2023-01-30 06:54:01+00:00,156.0,3.17,156.0,3.93,12.25,47.59359,-54.27349
2023-01-30 07:04:01+00:00,147.0,3.12,154.0,4.08,12.25,47.59359,-54.27349
2023-01-30 07:14:01+00:00,157.0,3.83,164.0,4.69,12.25,47.59359,-54.27349
2023-01-30 07:24:01+00:00,162.0,5.38,166.0,6.09,12.25,47.59359,-54.27349
2023-01-30 07:34:01+00:00,177.0,5.79,182.0,6.79,12.25,47.59359,-54.27349
2023-01-30 07:44:01+00:00,186.0,5.51,194.0,6.66,12.25,47.59359,-54.27349
2023-01-30 07:54:01+00:00,187.0,6.22,183.0,6.83,12.25,47.59359,-54.27349
2023-01-30 08:04:01+00:00,183.0,6.33,186.0,7.27,12.25,47.59359,-54.27349
2023-01-30 08:14:01+00:00,182.0,6.26,177.0,7.41,12.17,47.59359,-54.27349
2023-01-30 08:24:01+00:00,191.0,6.56,197.0,7.27,12.17,47.59359,-54.27349
2023-01-30 08:34:01+00:00,177.0,7.15,182.0,8.1,12.17,47.59359,-54.27349
2023-01-30 08:44:01+00:00,172.0,5.52,171.0,6.36,12.17,47.59359,-54.27349
2023-01-30 08:54:01+00:00,180.0,5.14,183.0,5.8,12.17,47.59359,-54.27349
2023-01-30 09:04:01+00:00,179.0,5.72,177.0,6.67,12.17,47.59359,-54.27349
2023-01-30 09:14:01+00:00,175.0,5.63,173.0,7.2,12.17,47.59359,-54.27349
2023-01-30 09:24:01+00:00,180.0,7.57,186.0,8.69,12.17,47.59359,-54.27349
2023-01-30 09:34:01+00:00,179.0,8.01,177.0,9.41,12.17,47.59359,-54.27349
2023-01-30 09:44:01+00:00,172.0,6.56,169.0,7.65,12.17,47.59359,-54.27349
2023-01-30 09:54:01+00:00,173.0,6.93,173.0,8.53,12.17,47.59359,-54.27349
2023-01-30 10:04:01+00:00,184.0,6.26,184.0,7.03,12.17,47.59359,-54.27349
2023-01-30 10:14:01+00:00,173.0,6.62,173.0,7.73,12.17,47.59359,-54.27349
2023-01-30 10:24:01+00:00,179.0,6.39,171.0,7.24,12.17,47.59359,-54.27349
2023-01-30 10:34:01+00:00,179.0,7.04,189.0,7.77,12.17,47.59359,-54.27349
2023-01-30 10:44:01+00:00,180.0,9.01,183.0,11.02,12.17,47.59359,-54.27349
2023-01-30 10:54:01+00:00,185.0,10.48,188.0,11.76,12.17,47.59359,-54.27349
2023-01-30 11:04:01+00:00,183.0,11.28,177.0,13.39,12.17,47.59359,-54.27349
2023-01-30 11:14:00+00:00,175.0,13.11,165.0,14.46,12.17,47.59359,-54.27349
2023-01-30 11:24:00+00:00,179.0,11.15,164.0,13.41,12.17,47.59359,-54.27349
2023-01-30 11:34:00+00:00,168.0,11.26,172.0,12.92,12.17,47.59359,-54.27349
2023-01-30 11:44:00+00:00,172.0,11.56,160.0,14.76,12.17,47.59359,-54.27349
2023-01-30 11:54:00+00:00,181.0,13.41,180.0,15.45,12.17,47.59359,-54.27349
2023-01-30 12:04:00+00:00,178.0,13.11,186.0,15.25,12.17,47.59359,-54.27349
2023-01-30 12:14:01+00:00,171.0,13.45,154.0,17.12,12.17,47.59359,-54.27349
2023-01-30 12:24:01+00:00,186.0,12.13,188.0,13.34,12.17,47.59359,-54.27349
2023-01-30 12:34:01+00:00,176.0,11.35,187.0,13.54,12.17,47.59359,-54.27349
2023-01-30 12:44:01+00:00,180.0,11.61,180.0,14.75,12.17,47.59359,-54.27349
2023-01-30 12:54:01+00:00,172.0,12.25,176.0,14.12,12.17,47.59359,-54.27349
2023-01-30 13:04:01+00:00,171.0,13.55,184.0,17.02,12.17,47.59359,-54.27349
2023-01-30 13:14:00+00:00,165.0,14.98,181.0,19.19,12.25,47.59359,-54.27349
2023-01-30 13:24:00+00:00,179.0,14.62,179.0,17.58,12.25,47.59359,-54.27349
2023-01-30 13:34:00+00:00,180.0,18.14,182.0,22.34,12.25,47.59359,-54.27349
2023-01-30 13:44:00+00:00,184.0,16.64,185.0,20.98,12.25,47.59359,-54.27349
2023-01-30 13:54:00+00:00,188.0,16.42,192.0,18.77,12.25,47.59359,-54.27349
2023-01-30 14:04:00+00:00,198.0,19.24,196.0,22.38,12.25,47.59359,-54.27349
2023-01-30 14:14:00+00:00,215.0,16.87,217.0,20.3,12.25,47.59359,-54.27349
2023-01-30 14:24:00+00:00,210.0,16.83,218.0,20.01,12.25,47.59359,-54.27349
2023-01-30 14:34:00+00:00,219.0,14.57,223.0,18.81,12.25,47.59359,-54.27349
2023-01-30 14:44:00+00:00,215.0,15.95,226.0,18.52,12.25,47.59359,-54.27349
2023-01-30 14:54:00+00:00,217.0,13.53,217.0,15.83,12.25,47.59359,-54.27349
2023-01-30 15:04:00+00:00,221.0,11.79,220.0,14.68,12.25,47.59359,-54.27349
2023-01-30 15:14:01+00:00,226.0,14.68,227.0,16.62,12.25,47.59359,-54.27349
2023-01-30 15:24:01+00:00,230.0,9.68,237.0,13.13,12.25,47.59359,-54.27349
2023-01-30 15:34:01+00:00,239.0,10.98,238.0,13.85,12.25,47.59359,-54.27349
2023-01-30 15:44:01+00:00,234.0,9.34,234.0,10.39,12.25,47.59359,-54.27349
2023-01-30 15:54:01+00:00,228.0,10.42,229.0,13.32,12.25,47.59359,-54.27349
2023-01-30 16:04:01+00:00,232.0,10.25,237.0,12.08,12.25,47.59359,-54.27349
2023-01-30 16:14:01+00:00,231.0,10.03,234.0,12.23,12.57,47.59359,-54.27349
2023-01-30 16:24:01+00:00,235.0,8.81,238.0,10.21,12.57,47.59359,-54.27349
2023-01-30 16:34:01+00:00,235.0,8.41,235.0,9.46,12.57,47.59359,-54.27349
2023-01-30 16:44:01+00:00,234.0,8.02,229.0,9.5,12.57,47.59359,-54.27349
2023-01-30 16:54:01+00:00,229.0,8.28,229.0,9.18,12.57,47.59359,-54.27349
2023-01-30 17:04:01+00:00,229.0,7.53,228.0,8.44,12.57,47.59359,-54.27349
2023-01-30 17:14:00+00:00,230.0,8.47,232.0,9.7,13.29,47.59359,-54.27349
2023-01-30 17:24:00+00:00,228.0,8.13,226.0,9.13,13.29,47.59359,-54.27349
2023-01-30 17:34:00+00:00,231.0,6.6,233.0,7.69,13.29,47.59359,-54.27349
2023-01-30 17:44:00+00:00,210.0,7.32,213.0,8.09,13.29,47.59359,-54.27349
2023-01-30 17:54:00+00:00,208.0,7.64,205.0,8.3,13.29,47.59359,-54.27349
2023-01-30 18:04:00+00:00,212.0,7.11,211.0,7.85,13.29,47.59359,-54.27349
2023-01-30 18:14:01+00:00,208.0,7.42,208.0,8.38,12.81,47.59359,-54.27349
2023-01-30 18:24:01+00:00,217.0,7.74,215.0,8.6,12.81,47.59359,-54.27349
2023-01-30 18:34:01+00:00,213.0,8.4,217.0,9.55,12.81,47.59359,-54.27349
2023-01-30 18:44:01+00:00,211.0,8.49,218.0,9.12,12.81,47.59359,-54.27349
2023-01-30 18:54:01+00:00,213.0,8.17,218.0,8.9,12.81,47.59359,-54.27349
2023-01-30 19:04:01+00:00,214.0,8.12,217.0,8.9,12.81,47.59359,-54.27349
2023-01-30 19:14:00+00:00,218.0,8.17,214.0,9.17,12.73,47.59359,-54.27349
2023-01-30 19:24:00+00:00,219.0,8.03,220.0,8.96,12.73,47.59359,-54.27349
2023-01-30 19:34:00+00:00,217.0,8.44,216.0,9.79,12.73,47.59359,-54.27349
2023-01-30 19:44:00+00:00,219.0,7.32,222.0,8.14,12.73,47.59359,-54.27349
2023-01-30 19:54:00+00:00,217.0,7.61,227.0,8.54,12.73,47.59359,-54.27349
2023-01-30 20:04:00+00:00,219.0,6.58,226.0,7.38,12.73,47.59359,-54.27349
2023-01-30 20:14:00+00:00,223.0,6.02,217.0,7.47,12.57,47.59359,-54.27349
2023-01-30 20:24:00+00:00,234.0,6.8,233.0,8.92,12.57,47.59359,-54.27349
2023-01-30 20:34:00+00:00,252.0,6.48,251.0,7.24,12.57,47.59359,-54.27349
2023-01-30 20:44:00+00:00,256.0,6.47,253.0,6.85,12.57,47.59359,-54.27349
2023-01-30 20:54:00+00:00,247.0,8.51,247.0,9.31,12.57,47.59359,-54.27349
2023-01-30 21:04:00+00:00,241.0,8.8,241.0,9.44,12.57,47.59359,-54.27349
2023-01-30 21:14:00+00:00,245.0,7.92,240.0,9.23,12.41,47.59359,-54.27349
2023-01-30 21:24:00+00:00,249.0,7.7,250.0,8.47,12.41,47.59359,-54.27349
2023-01-30 21:34:00+00:00,240.0,8.11,234.0,9.18,12.41,47.59359,-54.27349
2023-01-30 21:44:00+00:00,258.0,6.87,257.0,7.55,12.41,47.59359,-54.27349
2023-01-30 21:54:00+00:00,227.0,3.79,234.0,4.7,12.41,47.59359,-54.27349
2023-01-30 22:04:00+00:00,186.0,3.26,193.0,4.33,12.41,47.59359,-54.27349
2023-01-30 22:14:01+00:00,226.0,5.1,232.0,5.6,12.33,47.59359,-54.27349
2023-01-30 22:24:01+00:00,243.0,5.06,247.0,5.6,12.33,47.59359,-54.27349
2023-01-30 22:34:01+00:00,241.0,6.51,243.0,7.07,12.33,47.59359,-54.27349
2023-01-30 22:44:01+00:00,240.0,6.54,240.0,7.61,12.33,47.59359,-54.27349
2023-01-30 22:54:01+00:00,223.0,4.35,219.0,5.26,12.33,47.59359,-54.27349
2023-01-30 23:04:01+00:00,237.0,3.28,240.0,3.82,12.33,47.59359,-54.27349
2023-01-30 23:14:01+00:00,225.0,4.77,224.0,5.75,12.25,47.59359,-54.27349
2023-01-30 23:24:01+00:00,247.0,8.1,255.0,10.29,12.25,47.59359,-54.27349
2023-01-30 23:34:01+00:00,236.0,6.4,254.0,9.95,12.25,47.59359,-54.27349
2023-01-30 23:44:01+00:00,258.0,9.84,258.0,10.52,12.25,47.59359,-54.27349
2023-01-30 23:54:01+00:00,257.0,9.33,257.0,10.17,12.25,47.59359,-54.27349
